Tracking 28790 objects as of 19-Apr-2024
HD Live streaming from Space Station
objects crossing your sky now

COSMOS 2251 DEB

Track COSMOS 2251 DEB now!
10-day predictions


NORAD ID: 34032
Int'l Code: 1993-036HT
Perigee: 643.9 km
Apogee: 694.3 km
Inclination: 74.0 °
Period: 98.0 minutes
Semi major axis: 7040 km
RCS: 0.032 m2 (small)
Launch date: June 16, 1993
Source: Commonwealth of Independent States (former USSR) (CIS)
Launch site: PLESETSK MISSILE AND SPACE COMPLEX (PKMTR)

Note: This is SATELLITE DEBRIS
Your satellite tracking list
Your tracking list is empty




NASA's NSSDC Master Catalog

Two Line Element Set (TLE):
1 34032U 93036HT  24109.54945721  .00036909  00000-0  61038-2 0  9993
2 34032  74.0258 189.7473 0035820  34.0418  27.3495 14.69726893798646
Source of the keplerian elements: AFSPC